When you browse on this site, cookies collect data to enhance your experience and personalize the content and advertising you see.
Visit our Privacy Policy to learn more. By continuing to use the site, you agree to this use of cookies and data.
  • Em Portugal
  • Lista de países
  • Para 7 dias
  • Temperatura da água
  • Mapas de satélite
  • Mapa do tempo
  • Widgets de tempo
  • user-avatar
    Iniciar Sessão

    Previsão horária em Padnevichi

    Hoje, 18 Junho, Terça-feira

    Tempo Temperatura Precipitação Vento Pressão Humidade
    00:00 +16°C° 0 mm 3 m/s 746 mmHg 95%
    01:00 +16°C° 0 mm 3 m/s 746 mmHg 94%
    02:00 +14°C° 0 mm 3 m/s 747 mmHg 94%
    03:00 +14°C° 0 mm 3 m/s 747 mmHg 92%
    04:00 +14°C° 0 mm 3 m/s 747 mmHg 91%
    05:00 +14°C° 0 mm 3 m/s 747 mmHg 89%
    06:00 +16°C° 0 mm 3 m/s 747 mmHg 84%
    07:00 +17°C° 0 mm 3 m/s 748 mmHg 78%
    08:00 +18°C° 0 mm 3 m/s 748 mmHg 73%
    09:00 +19°C° 0 mm 3 m/s 748 mmHg 68%
    10:00 +20°C° 0 mm 3 m/s 748 mmHg 64%
    11:00 +22°C° 0 mm 3 m/s 748 mmHg 59%
    12:00 +22°C° 0 mm 3 m/s 748 mmHg 58%
    13:00 +24°C° 0 mm 3 m/s 748 mmHg 56%
    14:00 +24°C° 0 mm 3 m/s 748 mmHg 55%
    15:00 +24°C° 0 mm 3 m/s 748 mmHg 57%
    16:00 +24°C° 0 mm 3 m/s 747 mmHg 58%
    17:00 +25°C° 0 mm 2 m/s 747 mmHg 60%
    18:00 +23°C° 0 mm 2 m/s 747 mmHg 66%
    19:00 +20°C° 0 mm 2 m/s 747 mmHg 72%
    20:00 +20°C° 0 mm 1 m/s 747 mmHg 78%
    21:00 +19°C° 0 mm 1 m/s 747 mmHg 80%
    22:00 +18°C° 0 mm 1 m/s 747 mmHg 81%
    23:00 +16°C° 0 mm 1 m/s 747 mmHg 83%

    Amanhã, 19 Junho, Quarta-feira

    Tempo Temperatura Precipitação Vento Pressão Humidade
    00:00 +15°C° 0 mm 1 m/s 747 mmHg 84%
    01:00 +15°C° 0 mm 1 m/s 747 mmHg 85%
    02:00 +14°C° 0 mm 1 m/s 747 mmHg 86%
    03:00 +15°C° 0 mm 1 m/s 747 mmHg 86%
    04:00 +15°C° 0 mm 1 m/s 747 mmHg 87%
    05:00 +15°C° 0 mm 1 m/s 747 mmHg 87%
    06:00 +18°C° 0 mm 1 m/s 747 mmHg 83%
    07:00 +19°C° 0 mm 1 m/s 747 mmHg 78%
    08:00 +21°C° 0 mm 1 m/s 747 mmHg 74%
    09:00 +22°C° 0 mm 1 m/s 747 mmHg 69%
    10:00 +23°C° 0 mm 1 m/s 747 mmHg 64%
    11:00 +24°C° 0 mm 1 m/s 747 mmHg 59%
    12:00 +25°C° 0 mm 2 m/s 747 mmHg 58%
    13:00 +25°C° 0 mm 2 m/s 747 mmHg 57%
    14:00 +26°C° 0 mm 2 m/s 746 mmHg 56%
    15:00 +25°C° 0 mm 2 m/s 746 mmHg 58%
    16:00 +25°C° 0 mm 3 m/s 746 mmHg 61%
    17:00 +25°C° 0 mm 3 m/s 746 mmHg 64%
    18:00 +24°C° 0 mm 2 m/s 745 mmHg 69%
    19:00 +21°C° 0 mm 2 m/s 745 mmHg 74%
    20:00 +20°C° 0 mm 2 m/s 745 mmHg 78%
    21:00 +19°C° 0 mm 2 m/s 745 mmHg 79%
    22:00 +18°C° 0 mm 2 m/s 745 mmHg 81%
    23:00 +17°C° 0 mm 2 m/s 745 mmHg 82%

    Depois de amanhã, 20 Junho, Quinta-feira

    Tempo Temperatura Precipitação Vento Pressão Humidade
    00:00 +16°C° 0 mm 3 m/s 745 mmHg 82%
    01:00 +16°C° 0 mm 3 m/s 745 mmHg 83%
    02:00 +16°C° 0 mm 3 m/s 744 mmHg 83%
    03:00 +16°C° 0 mm 3 m/s 744 mmHg 83%
    04:00 +16°C° 0 mm 3 m/s 744 mmHg 82%
    05:00 +15°C° 0 mm 4 m/s 744 mmHg 82%
    06:00 +18°C° 0 mm 4 m/s 744 mmHg 81%
    07:00 +19°C° 0 mm 4 m/s 744 mmHg 81%
    08:00 +21°C° 0 mm 5 m/s 744 mmHg 80%
    09:00 +22°C° 0.3 mm 5 m/s 744 mmHg 78%
    10:00 +23°C° 0.3 mm 5 m/s 744 mmHg 77%
    11:00 +25°C° 0.3 mm 5 m/s 744 mmHg 75%
    12:00 +25°C° 0.5 mm 4 m/s 744 mmHg 78%
    13:00 +23°C° 0.5 mm 4 m/s 743 mmHg 81%
    14:00 +24°C° 0.5 mm 3 m/s 743 mmHg 83%
    15:00 +22°C° 0.6 mm 3 m/s 743 mmHg 86%
    16:00 +22°C° 0.6 mm 3 m/s 743 mmHg 88%
    17:00 +21°C° 0.6 mm 3 m/s 743 mmHg 91%
    18:00 +21°C° 0.1 mm 3 m/s 743 mmHg 91%
    19:00 +21°C° 0.1 mm 3 m/s 743 mmHg 90%
    20:00 +21°C° 0.1 mm 3 m/s 743 mmHg 90%
    21:00 +21°C° 0.3 mm 3 m/s 743 mmHg 91%
    22:00 +20°C° 0.3 mm 3 m/s 743 mmHg 92%
    23:00 +20°C° 0.3 mm 3 m/s 743 mmHg 93%

    21 Junho, Sexta-feira

    Tempo Temperatura Precipitação Vento Pressão Humidade
    00:00 +20°C° 0.4 mm 3 m/s 742 mmHg 94%
    01:00 +20°C° 0.4 mm 3 m/s 742 mmHg 95%
    02:00 +19°C° 0.4 mm 3 m/s 742 mmHg 96%
    03:00 +20°C° 0.3 mm 3 m/s 742 mmHg 96%
    04:00 +20°C° 0.3 mm 3 m/s 743 mmHg 96%
    05:00 +20°C° 0.3 mm 4 m/s 743 mmHg 97%
    06:00 +20°C° 0.1 mm 4 m/s 743 mmHg 96%
    07:00 +21°C° 0.1 mm 4 m/s 743 mmHg 95%
    08:00 +21°C° 0.1 mm 4 m/s 743 mmHg 94%
    09:00 +22°C° 0.7 mm 4 m/s 743 mmHg 91%
    10:00 +25°C° 0.7 mm 4 m/s 743 mmHg 87%
    11:00 +26°C° 0.7 mm 4 m/s 743 mmHg 84%
    12:00 +27°C° 1.6 mm 4 m/s 743 mmHg 80%
    13:00 +27°C° 1.6 mm 4 m/s 743 mmHg 77%
    14:00 +28°C° 1.6 mm 4 m/s 742 mmHg 74%
    15:00 +28°C° 0.2 mm 3 m/s 742 mmHg 75%
    16:00 +28°C° 0.2 mm 3 m/s 742 mmHg 76%
    17:00 +28°C° 0.2 mm 3 m/s 742 mmHg 78%
    18:00 +27°C° 0.3 mm 3 m/s 742 mmHg 81%
    19:00 +25°C° 0.3 mm 3 m/s 742 mmHg 84%
    20:00 +24°C° 0.3 mm 2 m/s 742 mmHg 88%
    21:00 +24°C° 0.5 mm 2 m/s 742 mmHg 89%
    22:00 +23°C° 0.5 mm 2 m/s 742 mmHg 90%
    23:00 +21°C° 0.5 mm 3 m/s 742 mmHg 92%

    22 Junho, Sábado

    Tempo Temperatura Precipitação Vento Pressão Humidade
    00:00 +21°C° 0 mm 3 m/s 742 mmHg 93%
    01:00 +21°C° 0 mm 3 m/s 742 mmHg 94%
    02:00 +20°C° 0 mm 3 m/s 742 mmHg 95%
    03:00 +20°C° 0.1 mm 3 m/s 741 mmHg 95%
    04:00 +21°C° 0.1 mm 3 m/s 741 mmHg 96%
    05:00 +21°C° 0.1 mm 4 m/s 741 mmHg 97%
    06:00 +22°C° 0.2 mm 3 m/s 742 mmHg 94%
    07:00 +24°C° 0.2 mm 3 m/s 742 mmHg 92%
    08:00 +24°C° 0.2 mm 3 m/s 742 mmHg 90%
    09:00 +25°C° 1.3 mm 4 m/s 742 mmHg 88%
    10:00 +25°C° 1.3 mm 4 m/s 743 mmHg 86%
    11:00 +26°C° 1.3 mm 4 m/s 743 mmHg 84%
    12:00 +25°C° 0.4 mm 4 m/s 743 mmHg 84%
    13:00 +25°C° 0.4 mm 4 m/s 743 mmHg 83%
    14:00 +25°C° 0.4 mm 4 m/s 744 mmHg 82%
    15:00 +23°C° 0.1 mm 4 m/s 744 mmHg 83%
    16:00 +23°C° 0.1 mm 4 m/s 744 mmHg 83%
    17:00 +22°C° 0.1 mm 5 m/s 744 mmHg 84%
    18:00 +21°C° 0 mm 4 m/s 745 mmHg 85%
    19:00 +21°C° 0 mm 4 m/s 745 mmHg 86%
    20:00 +20°C° 0 mm 3 m/s 745 mmHg 87%
    21:00 +19°C° 0 mm 3 m/s 745 mmHg 90%
    22:00 +18°C° 0 mm 3 m/s 746 mmHg 92%
    23:00 +17°C° 0 mm 3 m/s 746 mmHg 94%

    23 Junho, Domingo

    Tempo Temperatura Precipitação Vento Pressão Humidade
    00:00 +17°C° 0 mm 3 m/s 746 mmHg 95%
    01:00 +16°C° 0 mm 3 m/s 746 mmHg 95%
    02:00 +16°C° 0 mm 3 m/s 746 mmHg 95%
    03:00 +16°C° 0 mm 3 m/s 746 mmHg 95%
    04:00 +16°C° 0 mm 3 m/s 746 mmHg 94%
    05:00 +15°C° 0 mm 4 m/s 747 mmHg 93%
    06:00 +17°C° 0 mm 4 m/s 747 mmHg 91%
    07:00 +18°C° 0 mm 4 m/s 747 mmHg 88%
    08:00 +18°C° 0 mm 4 m/s 747 mmHg 85%
    09:00 +19°C° 0.1 mm 4 m/s 747 mmHg 85%
    10:00 +19°C° 0.1 mm 4 m/s 747 mmHg 85%
    11:00 +20°C° 0.1 mm 4 m/s 747 mmHg 84%
    12:00 +20°C° 0.1 mm 4 m/s 746 mmHg 84%
    13:00 +20°C° 0.1 mm 4 m/s 746 mmHg 84%
    14:00 +20°C° 0.1 mm 4 m/s 746 mmHg 84%
    15:00 +20°C° 0.2 mm 4 m/s 746 mmHg 86%
    16:00 +20°C° 0.2 mm 4 m/s 746 mmHg 87%
    17:00 +20°C° 0.2 mm 4 m/s 745 mmHg 88%
    18:00 +19°C° 0.5 mm 4 m/s 745 mmHg 90%
    19:00 +18°C° 0.5 mm 4 m/s 745 mmHg 93%
    20:00 +17°C° 0.5 mm 4 m/s 745 mmHg 95%
    21:00 +17°C° 0.5 mm 4 m/s 745 mmHg 96%
    22:00 +17°C° 0.5 mm 4 m/s 745 mmHg 96%
    23:00 +17°C° 0.5 mm 4 m/s 745 mmHg 97%
    Mostrar mais